Вернуться в каталог

STARLINK-37493

АктивенСвязьSSO
NORAD 68910·PAYLOAD·🇺🇸 United States

Запущен Apr 30, 2026 с Vandenberg Space Force Base

Loading…

Ближайшие Пролёты (ближайшие 24 часа)

TLE

СвежийSource: CelesTrak SupGP

Эпоха: Sep 14, 2026, 14:53 UTC

1 68910C 26097R   26257.62062500 -.00056753  00000+0 -17623-2 0  2576
2 68910  97.2848  91.8263 0001677  88.4130 120.5816 15.33458188    18

Отслеживайте STARLINK-37493 в реальном времени с AllMySat

Download on the App Store